User: anonymous   Login
Location: Hamilton
(37.7830°S, 175.2830°E)
Time: 13:24:58
(UTC+13:00)
Language:

Cosmos 1486 Rocket - Orbit

View from above orbital plane
View from above orbital plane
View from above satellite
View from above satellite

Ground track
Ground track

The orbit data is extracted from the following two-line orbital elements,

1 14241U 83079B   19292.05694760  .00000119  00000-0  49659-4 0  9997
2 14241  74.0576 119.5993 0017658 337.9447  22.0944 14.36173086895387
Epoch (UTC): 19 October 2019 01:22:00
Eccentricity: 0.0017658
inclination: 74.0576°
perigee height: 758 km
apogee height: 784 km
right ascension of ascending node: 119.5993°
argument of perigee: 337.9447°
revolutions per day: 14.36173086
mean anomaly at epoch: 22.0944°
orbit number at epoch: 89538

The dashed part of the orbit path shows where the satellite is in the earth's shadow,  

DLR